Regional Weather Roundup
Issued by NWS Charleston, WV

Home | Current Version | Previous Version | Graphics & Text | Print | Product List | Glossary On
Versions: 1 2 3 4 5 6 7 8 9 10 11 12 13 14 15 16 17 18 19 20 21 22 23 24 25 26 27 28 29 30 31 32 33 34 35 36 37 38 39 40 41 42 43 44 45 46 47 48 49 50
000
ASUS41 KRLX 261810
RWRRLX
West Virginia Regional Weather Roundup
National Weather Service Charleston WV
200 PM EDT THU MAR 26 2015

Note: "fair" indicates few or no clouds below 12,000 feet with no
significant weather and/or obstructions to visibility.

WVZ003-261900-
Northern Panhandle of West Virginia

CITY           SKY/WX    TMP DP  RH WIND       PRES   REMARKS
WHEELING       LGT RAIN  43  41  93 N15       29.77S FOG
$$

WVZ009-261900-
Northwest West Virginia

CITY           SKY/WX    TMP DP  RH WIND       PRES   REMARKS
PARKERSBURG    CLOUDY    47  44  90 N8        29.80S
$$

WVZ006-261900-
Western West Virginia

CITY           SKY/WX    TMP DP  RH WIND       PRES   REMARKS
HUNTINGTON     CLOUDY    50  48  93 NW12G17   29.79R
$$

WVZ015-261900-
West Central West Virginia

CITY           SKY/WX    TMP DP  RH WIND       PRES   REMARKS
CHARLESTON     PTSUNNY   64  51  62 W18G38    29.72S
$$

WVZ022-031-261900-
North Central West Virginia

CITY           SKY/WX    TMP DP  RH WIND       PRES   REMARKS
CLARKSBURG     CLOUDY    70  49  47 SW18G32   29.66F
MORGANTOWN     CLOUDY    60  47  61 N12G23    29.69R
$$

WVZ025-035-042-045-261900-
Southern West Virginia

CITY           SKY/WX    TMP DP  RH WIND       PRES   REMARKS
BECKLEY        LGT RAIN  62  50  64 W12G24    29.79F
LOGAN          PTSUNNY   68  54  60 S10G16    29.72F
BLUEFIELD      LGT RAIN  65  48  54 W16G25    29.81F
LEWISBURG      CLOUDY    71  44  38 SW10      29.76F
$$

WVZ047-261900-
Northern Mountains of West Virginia

CITY           SKY/WX    TMP DP  RH WIND       PRES   REMARKS
ELKINS         CLOUDY    68  46  45 SW16G31   29.72F
$$

WVZ052-261900-
Eastern Panhandle of West Virginia

CITY           SKY/WX    TMP DP  RH WIND       PRES   REMARKS
MARTINSBURG    PTSUNNY   72  54  53 SE15G22   29.65F
PETERSBURG     CLOUDY    76  39  26 SW13G25   29.65F
$$


USA.gov is the U.S. government's official web portal to all federal, state and local government web resources and services.